This is the latest recevied weather packets stored in our database for station/object KC9ZAR-13. If no packets are shown the sender has not sent any weather packets the latest 10 day(s).
| Time | Temp. | Humidity | Pressure | Rain* | Wind** | Luminosity | Snow |
|---|---|---|---|---|---|---|---|
| 1778068804 | 8.89° C | 94% | 1011.1 hPa | 0 mm | - | 0 W/m² | - |
| 1778067605 | 8.89° C | 94% | 1010.9 hPa | 0 mm | - | 0 W/m² | - |
| 1778066705 | 8.33° C | 95% | 1010.9 hPa | 0 mm | - | 0 W/m² | - |
| 1778066405 | 8.33° C | 94% | 1010.9 hPa | 0 mm | - | 0 W/m² | - |
| 1778065805 | 8.33° C | 94% | 1010.2 hPa | 0 mm | - | 0 W/m² | - |
| 1778064605 | 8.33° C | 94% | 1009.9 hPa | 0 mm | - | 0 W/m² | - |
| 1778064304 | 8.33° C | 94% | 1009.8 hPa | 0 mm | - | 0 W/m² | - |
| 1778062505 | 8.33° C | 94% | 1008.9 hPa | 0 mm | - | 0 W/m² | - |
| 1778061605 | 8.33° C | 95% | 1009.2 hPa | 0 mm | - | 0 W/m² | - |
| 1778058005 | 8.33° C | 95% | 1008.5 hPa | 0 mm | - | 0 W/m² | - |
| 1778055905 | 7.78° C | 95% | 1008.1 hPa | 0 mm | - | 0 W/m² | - |
| 1778049904 | 7.78° C | 96% | 1008.1 hPa | 0 mm | - | 0 W/m² | - |
| 1778048405 | 8.33° C | 96% | 1007.6 hPa | 0.51 mm | - | 0 W/m² | - |
| 1778048105 | 8.33° C | 96% | 1007.6 hPa | 0.76 mm | - | 0 W/m² | - |
| 1778046305 | 9.44° C | 96% | 1007.6 hPa | 2.29 mm | - | 0 W/m² | - |
| 1778045105 | 9.44° C | 96% | 1007.1 hPa | 2.29 mm | - | 0 W/m² | - |
| 1778043005 | 9.44° C | 96% | 1007.6 hPa | 3.3 mm | - | 0 W/m² | - |
| 1778041205 | 9.44° C | 96% | 1007.3 hPa | 5.33 mm | - | 0 W/m² | - |
| 1778039704 | 9.44° C | 96% | 1007.4 hPa | 5.84 mm | - | 0 W/m² | - |
| 1778038505 | 9.44° C | 96% | 1006.5 hPa | 6.1 mm | - | 0 W/m² | - |
| 1778033705 | 9.44° C | 96% | 1006.1 hPa | 1.78 mm | - | 0 W/m² | - |
| 1778032506 | 10° C | 96% | 1006.1 hPa | 0.76 mm | - | 0 W/m² | - |
| 1778029206 | 10° C | 96% | 1005.3 hPa | 0.76 mm | - | 0 W/m² | - |
| 1778026806 | 10° C | 95% | 1005.6 hPa | 2.29 mm | - | 0 W/m² | - |
| 1778026506 | 10° C | 95% | 1005.8 hPa | 2.29 mm | - | 0 W/m² | - |
* Rain latest hour (hover to see other rain measurements)
** Current wind speed in m/s (hover to see current wind gust speed)